[[{"header":{"parameterUnit":"m.s-1","parameterCategory":1,"la1":30.2991,"la2":30.254,"lo1":-89.0895,"lo2":-89.0444,"dy":0.0017,"dx":0.0017,"nx":28,"ny":28,"refTime":"2025-08-16T03:00:00:Z","depth":0,"parameterNumber":2,"parameterNumberName":"U-component_of_WINDS"},"data":[0,0,0,0,0,0,0,0,0,0,0,0,0,0,0,0,0,0,0,0,0,0,0,0,0,0,0,0,0,0,0,0,0,0,0,0,0,0,0,0,0,0,0,0,0,0,0,0,0,0,0,0,0,0,0,0,0,0,0.9169,0.9169,0,0.9215,0.9215,0.9216,0.9185,0.9183,0.9182,0.9181,0.9238,0.9241,0.9243,0,0,0,0,0,0,0,0,0,0,0,0,0,0.9062,0.9064,0.9169,0.9169,0.917,0.9215,0.9215,0.9216,0.9185,0.9183,0.9182,0.918,0.9237,0.924,0.9244,0,0,0,0,0,0,0,0,0,0,0,0,0,0.9109,0.9065,0.9168,0.9159,0.9159,0.9215,0.9215,0.9216,0.9186,0.9183,0.9181,0.9179,0.9236,0.924,0.9244,0.9314,0,0,0.9257,0.9259,0,0,0,0,0,0,0,0,0.9106,0.9113,0.916,0.916,0.916,0.9192,0.9199,0.9249,0.9186,0.9176,0.9181,0.9178,0.9225,0.923,0.9244,0.9317,0.9319,0.9258,0.926,0.9262,0.9263,0,0,0,0,0,0,0,0.9103,0.9111,0.9187,0.9161,0.9161,0.9156,0.916,0.9208,0.9212,0.9177,0.9174,0.918,0.9224,0.924,0.9245,0.932,0.9258,0.9261,0.9264,0.9266,0.9453,0.9455,0,0,0,0,0,0,0.9099,0.9108,0.9186,0.9188,0.9127,0.916,0.9164,0.9184,0.9212,0.9213,0.9182,0.9178,0.9233,0.924,0.9247,0.933,0.9262,0.9266,0.9269,0.9451,0.9454,0.9456,0,0,0,0,0,0,0.9097,0.9106,0.9184,0.9148,0.9157,0.9164,0.9186,0.9186,0.9201,0.9215,0.9217,0.9196,0.9232,0.9241,0.9297,0.9331,0.9268,0.9272,0.9448,0.9451,0.9455,0.9497,0,0,0,0,0,0,0.9094,0.9106,0.913,0.9148,0.9159,0.923,0.9188,0.9188,0.9207,0.9203,0.9229,0.9231,0.9231,0.929,0.9301,0.9336,0.9275,0.9445,0.9449,0.9454,0.9493,0.9502,0.9509,0,0,0,0,0,0.909,0.9143,0.9132,0.9141,0.9189,0.9232,0.9239,0.9235,0.921,0.9236,0.9245,0.923,0.9326,0.9296,0.9308,0.9345,0.9443,0.9448,0.9453,0.9489,0.95,0.9509,0,0,0,0,0,0,0.9132,0.9145,0.9133,0.9192,0.9211,0.9227,0.926,0.9247,0.9276,0.9271,0.9268,0.9274,0.9332,0.9345,0.9312,0.9414,0.9381,0.9389,0.9404,0.9414,0.9423,0.9419,0.9279,0,0,0,0,0,0.9147,0.9178,0.9189,0.924,0.925,0.9253,0.9272,0.9267,0.9288,0.9297,0.931,0.9334,0.9369,0.9393,0.9426,0.9494,0.95,0.9526,0.9534,0.9541,0.9548,0.9585,0.9597,0.9474,0.9474,0.9474,0,0,0.9181,0.9191,0.9212,0.9249,0.9263,0.9297,0.926,0.9299,0.9325,0.9304,0.9356,0.9367,0.9394,0.9456,0.9484,0.9468,0.9583,0.9548,0.9553,0.9557,0.9592,0.9604,0.9614,0.9477,0.9477,0.9476,0,0,0.9258,0.9269,0.9312,0.9327,0.9348,0.9349,0.936,0.9378,0.9383,0.9435,0.9419,0.9453,0.9514,0.9533,0.9551,0.9635,0.9623,0.9647,0.9691,0.9727,0.9737,0.9746,0.9776,0.9787,0.9654,0.9654,0.9654,0,0.9298,0.9346,0.9337,0.9376,0.9394,0.9372,0.9417,0.9433,0.9465,0.9479,0.9459,0.9534,0.9551,0.9618,0.9638,0.9653,0.9667,0.9644,0.9736,0.9744,0.9752,0.9781,0.9793,0.9657,0.9656,0.9656,0.9656,0,0.9394,0.9428,0.9461,0.9489,0.951,0.9552,0.9552,0.9575,0.9569,0.9573,0.9628,0.9646,0.9682,0.9698,0.9694,0.9765,0.9754,0.9735,0.9701,0.9767,0.9794,0.9805,0.9661,0.966,0.9659,0.9658,0,0,0.9499,0.952,0.9533,0.9545,0.9566,0.9594,0.9636,0.9668,0.9688,0.9712,0.9748,0.9799,0.9782,0.9802,0.98,0.9832,0.9898,0.981,0.981,0.9825,0.9978,0.9991,1.0004,0.989,0.9892,0.9894,0.9976,0,0.9578,0.9647,0.9641,0.9708,0.974,0.972,0.9757,0.9776,0.9781,0.9812,0.982,0.9856,0.983,0.9842,0.9873,0.9883,0.9929,0.9877,0.9926,0.9927,0.9919,1.0018,1.0033,1.0109,0.9986,0.9988,0.9989,0,0.9679,0.9702,0.9771,0.9787,0.98,0.9833,0.9862,0.9891,0.9912,0.9914,0.9936,0.9928,0.9973,0.9938,1.0001,0.9966,0.9986,0.9995,0.9998,1.0002,0.9962,1.0025,1.0134,1.0145,1.0006,1.0005,1.0004,0,0.9749,0.9797,0.9845,0.9856,0.9876,0.9899,0.9909,0.9928,0.9948,0.9975,0.9988,1.0021,1.0039,1.0066,1.0068,1.0042,1.0132,1.0097,1.0137,1.0137,1.0157,1.0156,1.0269,1.017,1.017,1.017,1.0169,0,0.9837,0.988,0.9876,0.9905,0.9954,0.9947,0.9996,1.0004,1.0021,1.0054,1.004,1.0072,1.0072,1.0105,1.0108,1.016,1.0169,1.0173,1.0173,1.0174,1.0173,1.0187,1.0182,1.0173,1.0172,1.0171,1.0171,0,0.9923,0.9921,0.9972,0.9985,0.999,1.0025,1.0038,1.0068,1.0071,1.0113,1.0122,1.013,1.0168,1.0172,1.0218,1.022,1.0282,1.0277,1.0274,1.0273,1.0312,1.0308,1.0438,1.0455,1.0345,1.0346,1.0347,0,0.9979,1.0011,1.0028,1.0046,1.0057,1.0088,1.0107,1.0103,1.0124,1.015,1.0177,1.0213,1.0241,1.0304,1.0315,1.035,1.0346,1.0389,1.0351,1.0351,1.0346,1.0344,1.0347,1.0396,1.0398,1.0398,1.0399,0,1.0079,1.0076,1.0103,1.0129,1.0152,1.0173,1.0193,1.0211,1.0209,1.0234,1.0271,1.0292,1.0337,1.0374,1.0408,1.0422,1.0411,1.0411,1.0422,1.0423,1.0419,1.0421,1.0294,1.0408,1.0407,1.0407,1.0406,1.0406,1.0152,1.0179,1.0194,1.0224,1.0238,1.0257,1.0285,1.0291,1.032,1.0354,1.0351,1.0392,1.0414,1.0458,1.0474,1.0508,1.0494,1.051,1.0514,1.0518,1.0521,1.0414,1.0514,1.0514,1.0514,1.0514,1.0513,0,1.0251,1.0259,1.0287,1.0313,1.0338,1.0322,1.0344,1.0366,1.0401,1.042,1.0447,1.049,1.0526,1.0539,1.0574,1.0599,1.0595,1.0609,1.0607,1.061,1.0532,1.0518,1.0611,1.0611,1.0611,1.0611,1.0611,1.0611,1.0305,1.035,1.035,1.0403,1.0412,1.0449,1.0462,1.048,1.0496,1.0543,1.057,1.0578,1.0596,1.0632,1.0665,1.0668,1.0682,1.0697,1.0699,1.0626,1.0616,1.0606,1.0594,1.07,1.07,1.0774,1.0775,1.0775]},{"header":{"parameterUnit":"m.s-1","parameterCategory":1,"la1":30.2991,"la2":30.254,"lo1":-89.0895,"lo2":-89.0444,"dy":0.0017,"dx":0.0017,"nx":28,"ny":28,"refTime":"2025-08-16T03:00:00:Z","depth":0,"parameterNumber":3,"parameterNumberName":"V-component_of_WINDS"},"data":[0,0,0,0,0,0,0,0,0,0,0,0,0,0,0,0,0,0,0,0,0,0,0,0,0,0,0,0,0,0,0,0,0,0,0,0,0,0,0,0,0,0,0,0,0,0,0,0,0,0,0,0,0,0,0,0,0,0,1.0616,1.0617,0,1.0752,1.0753,1.0755,1.0818,1.0818,1.0818,1.0818,1.0951,1.0954,1.0958,0,0,0,0,0,0,0,0,0,0,0,0,0,1.0406,1.0409,1.0616,1.0617,1.0619,1.0752,1.0754,1.0755,1.0818,1.0818,1.0818,1.0818,1.0949,1.0954,1.0958,0,0,0,0,0,0,0,0,0,0,0,0,0,1.0515,1.0411,1.0615,1.0667,1.0673,1.0751,1.0754,1.0756,1.0818,1.0818,1.0818,1.0818,1.0948,1.0953,1.0959,1.0995,0,0,1.0975,1.0977,0,0,0,0,0,0,0,0,1.0508,1.0522,1.0657,1.0663,1.067,1.0768,1.0728,1.0836,1.0818,1.0763,1.0818,1.0818,1.0889,1.09,1.0925,1.1001,1.1007,1.0976,1.0979,1.0981,1.0983,0,0,0,0,0,0,0,1.0501,1.0517,1.0669,1.0659,1.0667,1.0681,1.0697,1.0749,1.0825,1.0767,1.0772,1.0788,1.0893,1.092,1.0929,1.1009,1.0975,1.098,1.0984,1.0986,1.1122,1.1123,0,0,0,0,0,0,1.0486,1.051,1.0665,1.0674,1.0588,1.0685,1.0702,1.0737,1.0825,1.0838,1.0788,1.079,1.0911,1.0922,1.0934,1.0983,1.0981,1.0986,1.0989,1.1122,1.1122,1.1123,0,0,0,0,0,0,1.0481,1.0499,1.066,1.0593,1.0615,1.0689,1.0727,1.0739,1.0767,1.084,1.0853,1.0802,1.0911,1.0926,1.098,1.0989,1.0989,1.0994,1.1122,1.1122,1.1123,1.1081,0,0,0,0,0,0,1.0475,1.0497,1.0512,1.0593,1.0618,1.0705,1.0727,1.0742,1.0777,1.0781,1.0857,1.0869,1.0912,1.0972,1.0985,1.0996,1.0998,1.1121,1.1122,1.1123,1.1082,1.108,1.1079,0,0,0,0,0,1.0467,1.0493,1.0513,1.0531,1.0639,1.0705,1.0719,1.077,1.0777,1.0793,1.084,1.0867,1.0986,1.0977,1.0993,1.1005,1.1121,1.1122,1.1122,1.1083,1.1081,1.1079,0,0,0,0,0,0,1.0408,1.0505,1.0527,1.0581,1.0635,1.0716,1.0737,1.0766,1.0817,1.0819,1.0878,1.0894,1.0943,1.0979,1.0968,1.1046,1.1056,1.106,1.102,1.1019,1.1017,1.1007,1.1002,0,0,0,0,0,1.0402,1.0449,1.053,1.0569,1.0596,1.0662,1.0692,1.0727,1.0784,1.0806,1.0858,1.0911,1.0961,1.0991,1.1041,1.1088,1.1106,1.1105,1.1103,1.1101,1.1104,1.1133,1.1133,1.1126,1.1126,1.1126,0,0,1.0388,1.0447,1.0473,1.0559,1.0605,1.0652,1.068,1.0727,1.0762,1.0813,1.0868,1.0908,1.0971,1.1022,1.1047,1.1053,1.111,1.1102,1.11,1.1104,1.1134,1.1134,1.1135,1.1126,1.1126,1.1126,0,0,1.0388,1.0437,1.0476,1.0522,1.0593,1.0637,1.0646,1.0724,1.0753,1.081,1.085,1.0891,1.0975,1.1019,1.1052,1.1071,1.1097,1.1085,1.1076,1.1103,1.1104,1.1105,1.1112,1.1114,1.1087,1.1087,1.1087,0,1.0361,1.0435,1.0492,1.0538,1.0575,1.0627,1.0667,1.0708,1.0789,1.0813,1.0821,1.0929,1.0974,1.1037,1.1043,1.1067,1.108,1.1076,1.11,1.1101,1.1103,1.111,1.1113,1.1086,1.1086,1.1086,1.1086,0,1.04,1.045,1.0473,1.0554,1.0594,1.0636,1.0699,1.0732,1.0764,1.0807,1.0864,1.0922,1.0985,1.1002,1.1032,1.107,1.1072,1.1089,1.11,1.1101,1.1109,1.1112,1.1083,1.1083,1.1084,1.1085,0,0,1.0363,1.0478,1.0486,1.0524,1.0607,1.0646,1.0691,1.0755,1.0783,1.0838,1.0877,1.0948,1.0965,1.1003,1.1039,1.1063,1.1076,1.1077,1.1079,1.1075,1.1121,1.1108,1.1111,1.1094,1.1095,1.1096,1.1116,0,1.0374,1.046,1.0514,1.0577,1.0625,1.0676,1.0715,1.077,1.0812,1.0857,1.0902,1.0953,1.0971,1.0994,1.102,1.1068,1.1086,1.1068,1.113,1.1132,1.1113,1.1115,1.1101,1.1118,1.112,1.112,1.1121,0,1.0398,1.0456,1.0524,1.0604,1.0626,1.0661,1.0725,1.0769,1.0831,1.086,1.0904,1.0941,1.099,1.0998,1.1066,1.1053,1.1082,1.1109,1.1111,1.1119,1.1126,1.1122,1.1124,1.1126,1.1126,1.1126,1.1125,0,1.0365,1.046,1.0514,1.0545,1.0639,1.0663,1.0702,1.0766,1.0802,1.0857,1.0881,1.0941,1.0973,1.1018,1.107,1.1071,1.1133,1.1145,1.1158,1.1156,1.1168,1.1166,1.1174,1.1186,1.1186,1.1186,1.1186,0,1.0372,1.0412,1.0501,1.0534,1.0581,1.0642,1.0686,1.073,1.0787,1.0828,1.0875,1.0913,1.098,1.1026,1.1066,1.1117,1.1131,1.1155,1.1165,1.1151,1.1148,1.117,1.117,1.1187,1.1187,1.1187,1.1187,0,1.0342,1.0404,1.0466,1.0552,1.0574,1.0605,1.0678,1.0711,1.0757,1.081,1.0825,1.0896,1.0953,1.101,1.1085,1.1113,1.1163,1.1177,1.1142,1.1148,1.1158,1.1156,1.118,1.1186,1.1194,1.1194,1.1194,0,1.0342,1.0375,1.0465,1.0498,1.0538,1.059,1.0628,1.069,1.0727,1.0803,1.0828,1.0889,1.0941,1.1029,1.1086,1.1144,1.116,1.1165,1.1169,1.1154,1.1161,1.1158,1.1162,1.1162,1.1162,1.1161,1.1161,0,1.0335,1.0365,1.0419,1.0485,1.053,1.0584,1.0639,1.0663,1.0736,1.0775,1.0836,1.0877,1.0956,1.1016,1.1082,1.1121,1.1153,1.116,1.1166,1.1151,1.113,1.1142,1.1137,1.1158,1.1159,1.1159,1.1159,1.1159,1.032,1.0353,1.0422,1.0482,1.0531,1.0583,1.062,1.0672,1.0724,1.0795,1.0829,1.0889,1.0953,1.1045,1.1085,1.1132,1.114,1.1149,1.1151,1.1152,1.1149,1.1123,1.1144,1.1144,1.1144,1.1144,1.1145,0,1.0316,1.0364,1.0419,1.0497,1.0544,1.0574,1.0637,1.0674,1.0728,1.0786,1.0838,1.0908,1.0967,1.103,1.1093,1.1119,1.1135,1.1133,1.1131,1.114,1.1138,1.1127,1.1119,1.1119,1.1119,1.1119,1.1119,1.1119,1.0319,1.0376,1.0414,1.0496,1.0544,1.0607,1.064,1.0688,1.0736,1.0813,1.0863,1.0905,1.0966,1.1034,1.1089,1.1106,1.1127,1.1121,1.1141,1.1138,1.114,1.1141,1.1131,1.1125,1.1125,1.114,1.114,1.114]}]]